www.pogodaiklimat.ru

Погода и климат >> Архив погоды >> Россия >> Ненецкий АО >> Нарьян-Мар


АРХИВ ПОГОДЫ в Нарьян-Маре

Время (UTC), дата Ветер
(напр.,м/с)
 
Видим.   Явления Облачность Т
(С)
Тd
(С)
f
(%)
Тe
(С)
Тes
(С)
Комфортность P
(гПа)
Po
(гПа)
Тmin
(С)
Tmax
(С)
R
(мм)
R24
(мм)
S
(см)
09 17.04 З 6
{10}
2000 м слаб. ливневой снег {метель} 10/10 500 м
[Cb calv]
-3.1 -4.8 88 -11 -11 по сезону 1024.8 1023.4
12 17.04 З 6-10
{11}
4000 м слаб. ливневой снег {метель} 10/10 270 м
[Cb cap]
+0.5 -0.6 92 -6 -6 по сезону 1023.1 1021.7
15 17.04 З 5
{11}
4000 м слаб. ливневой снег 10/10 240 м
[Cb cap]
+0.5 +0.5 100 -6 -6 по сезону 1021.3 1019.9 +0.8 1
18 17.04 З 5
{11}
4000 м слаб. ливневой снег 10/10 210 м
[Cb cap]
+0.2 +0.2 100 -6 -6 по сезону 1019.6 1018.2
21 17.04 З 4
{11}
4000 м слаб. ливневой снег 10/10 240 м
[Cb cap]
+0.5 +0.5 100 -5 -5 тепло 1017.7 1016.3
00 18.04 З 5
{11}
20 км {ливн. осадки} 10/10 180 м
[St]
+0.4 +0.4 100 -6 -6 тепло 1015.9 1014.5
03 18.04 СЗ 4 4000 м слаб. морось 10/10 150 м
[St]
+0.5 +0.5 100 -5 -5 тепло 1015.9 1014.5 +0.1 0.3 78
06 18.04 С 3 20 км в посл. час ливневой снег 10/10 1050 м
[Sc]
+1.4 -1.7 80 -3 -3 тепло 1017.7 1016.3
09 18.04 СЗ 5 20 км 10/0
[Ac und]
+2.0 -1.3 79 -3 -2 тепло 1019.6 1018.2
12 18.04 З 5
{12}
20 км 8/0
[Ac trans Ci fib]
+1.5 -1.4 81 -4 -3 по сезону 1020.4 1019.0
15 18.04 З 5-10
{11}
20 км 10/10 420 м
[Sc]
+0.9 -2.4 79 -5 -5 по сезону 1018.9 1017.5 +2.3 0.0
18 18.04 З 4
{11}
20 км 10/10 120 м
[St]
+0.5 +0.5 100 -5 -5 тепло 1017.7 1016.3
21 18.04 СЗ 6-10
{10}
20 км 10/10 300 м
[St]
+0.4 +0.1 98 -6 -6 тепло 1017.9 1016.5
00 19.04 СЗ 3
{10}
20 км 10/10 270 м
[St]
+0.3 +0.2 99 -5 -5 тепло 1018.3 1016.9
03 19.04 СЗ 3 20 км {ливн. осадки} 10/10 450 м
[Cb calv]
+0.8 +0.6 99 -4 -4 тепло 1018.7 1017.3 -0.0 0.0 78
06 19.04 СЗ 4 20 км в посл. час ливневой снег 10/10 150 м
[St]
+1.0 +1.0 100 -5 -5 по сезону 1019.2 1017.8
09 19.04 СЗ 4 20 км в посл. час зёрна 10/10 180 м
[St]
+1.2 +1.2 100 -4 -4 по сезону 1019.8 1018.4
12 19.04 СЗ 3 20 км {снег} 10/10 240 м
[St]
+1.3 +1.3 100 -3 -3 по сезону 1020.6 1019.3
15 19.04 З 2 4000 м слаб. морось 10/10 180 м
[St]
+1.1 +1.1 100 -3 -3 тепло 1021.0 1019.6 +1.4 0.1
18 19.04 З 3 20 км {морось} 10/10 150 м
[St]
+0.7 +0.7 100 -4 -4 тепло 1021.3 1019.9
21 19.04 З 3 4000 м дымка 10/10 150 м
[St]
+0.5 +0.5 100 -4 -4 тепло 1021.6 1020.2
00 20.04 З 2 20 км 10/10 1200 м
[Sc]
+0.7 +0.7 100 -3 -3 тепло 1021.5 1020.1
03 20.04 З 4 20 км 10/0
[Ac und]
+1.1 +0.9 99 -4 -4 тепло 1021.2 1019.9 +0.4 0.0 72
06 20.04 З 5 20 км 10/8 240 м
[St Ac und]
+1.4 +1.1 98 -5 -4 по сезону 1021.2 1019.8
09 20.04 З 5 20 км 10/0
[Ac und]
+2.2 -0.8 81 -3 -2 по сезону 1021.3 1019.9
12 20.04 З 5 20 км 10/8 1410 м
[Sc Ac und]
+2.0 -1.4 78 -3 -3 по сезону 1019.9 1018.6
15 20.04 З 6-10
{11}
4000 м слаб. снег 10/0
[Ac As]
+1.6 -2.2 76 -4 -4 по сезону 1017.2 1015.8 +2.4 0.0
18 20.04 З 6-11
{13}
4000 м слаб. снег 10/9 210 м
[Frnb As op]
+0.8 +0.8 100 -6 -6 по сезону 1014.2 1012.8
21 20.04 З 6-11
{13}
4000 м дымка {снег} 10/10 150 м
[St]
+0.8 +0.8 100 -6 -6 по сезону 1012.3 1010.9
00 21.04 З 5
{11}
4000 м слаб. морось 10/10 150 м
[St]
+1.1 +1.1 100 -5 -5 тепло 1010.9 1009.6
03 21.04 З 4
{10}
20 км {морось} 10/10 240 м
[St]
+0.9 +0.9 100 -5 -5 тепло 1011.7 1010.3 +0.5 2 71
06 21.04 З 5 20 км в посл. час ливневой снег 10/10 500 м
[Sc]
+1.6 +1.4 99 -4 -4 по сезону 1012.1 1010.7
09 21.04 З 4 20 км 10/10 210 м
[St]
+1.8 +1.8 100 -4 -4 по сезону 1012.3 1010.9
12 21.04 З 4 20 км 9/6 660 м
[Sc Ac trans]
+3.6 +0.6 81 -1 -0 тепло 1011.2 1009.8
15 21.04 ЮЗ 4 20 км в посл. час ливневой снег 10/10 500 м
[Cb cap]
+3.1 +1.3 88 -2 -2 тепло 1009.0 1007.7 +3.6 0.3
18 21.04 ЮЗ 5
{10}
10 км слаб. ливневой дождь 10/8 540 м
[Cb cap Ac und]
+2.5 +1.1 90 -3 -3 тепло 1007.8 1006.5
21 21.04 З 4
{11}
20 км {ливн. осадки} 10/10 270 м
[St]
+2.0 +1.6 97 -3 -3 тепло 1006.6 1005.3
00 22.04 ЮЗ 4
{10}
20 км {ливн. осадки} 10/10 330 м
[St]
+1.8 +1.6 99 -4 -4 тепло 1005.4 1004.0
03 22.04 ЮЗ 5
{10}
20 км 10/8 240 м
[St Ac und]
+1.5 +1.5 100 -4 -4 тепло 1004.1 1002.8 +1.5 0.3 67
06 22.04 З 5
{10}
10 км слаб. дождь 10/10 210 м
[Frnb Ns]
+1.7 +1.7 100 -4 -4 по сезону 1003.3 1001.9
09 22.04 З 6-10
{11}
20 км в посл. час дождь 9/8 400 м
[Sc Ac trans]
+3.0 +0.4 83 -3 -2 по сезону 1003.1 1001.8
12 22.04 З 6-11
{12}
20 км {дождь} 8/3 300 м
[Sc Ac trans]
+3.2 +0.4 82 -2 -2 по сезону 1004.0 1002.7
15 22.04 З 6
{12}
10 км слаб. дождь 10/10 210 м
[Frnb Ns]
+1.5 +1.5 100 -5 -5 по сезону 1004.5 1003.1 +3.9 0.4
18 22.04 С 5
{10}
20 км в посл. час снег {дождь} 10/10 540 м
[Sc]
+0.3 -0.5 94 -6 -6 по сезону 1007.7 1006.3
21 22.04 С 5
{10}
20 км 9/8 1000 м
[Sc Ac trans]
-0.8 -5.6 70 -7 -7 по сезону 1011.1 1009.7
00 23.04 С 3
{10}
20 км 10/10 900 м
[Sc]
-1.8 -5.8 74 -7 -7 по сезону 1014.0 1012.6
03 23.04 СЗ 2 20 км 10/10 800 м
[Sc]
-1.9 -6.8 69 -5 -5 по сезону 1015.4 1014.0 -2.0 0.0 62
06 23.04 З 2 20 км 10/10 870 м
[Sc]
-1.5 -7.9 62 -5 -5 по сезону 1015.7 1014.4
09 23.04 Ю 3 20 км 10/8 1260 м
[Sc Ac und]
-0.7 -7.5 60 -5 -5 по сезону 1015.2 1013.9
12 23.04 ЮВ 3 20 км 10/4 1000 м
[Sc Ac und]
+0.1 -6.2 63 -4 -3 по сезону 1014.1 1012.7
15 23.04 Ю 2 20 км 8/3 600 м
[Sc Ac trans Ci fib]
-0.8 -5.3 72 -4 -4 по сезону 1012.9 1011.5 +0.2
18 23.04 В 2 20 км 10/10 960 м
[Sc]
-1.5 -4.3 81 -5 -5 по сезону 1012.4 1011.0
21 23.04 В 1 20 км 10/10 800 м
[Sc]
-1.7 -4.3 82 -4 -4 тепло 1011.7 1010.3
00 24.04 В 1 20 км {ливн. осадки} 9/8 840 м
[Sc Ac trans]
-2.0 -3.9 87 -4 -4 тепло 1011.4 1010.0
03 24.04 СВ 1 4000 м слаб. ливневой снег 10/10 420 м
[Cb cap]
-1.6 -4.4 81 -4 -4 тепло 1012.2 1010.8 -2.1 0.0 60
06 24.04 С 3 20 км в посл. час ливневой снег 9/3 600 м
[Cb cap Ac trans Ci fib]
-0.5 -4.1 77 -5 -3 по сезону 1013.9 1012.5

 

Местоположение метеостанции Нарьян-Мар (Ненецкий АО, Россия): широта 67.63 долгота 53.02 высота над уровнем моря 12 м.

В архиве по умолчанию представлена погода в Нарьян-Маре за последнюю неделю. Архивные данные за месяц целиком и за предыдущие месяцы, начиная с января 2011 года, Вы можете получить, выбрав интересующий диапазон дат из раскрывающегося списка и нажав кнопку "Ввод!".


*Определитесь, кто Вы:
робот инопланетянин человек

Внимание! Время в таблицах - всемирное. Для получения местного времени необходимо прибавить поправку, которая равна 3 ч.

Смотрите также архив погоды в соседних городах и на ближайших метеорологических станциях:

Погода в Коткино (Ненецкий АО, Россия) (105 км)
Погода в Сенгейском Шаре (Ненецкий АО, Россия) (120 км)
Погода на Мысе Константиновском (Ненецкий АО, Россия) (145 км)
Погода в Ходоварихе (Ненецкий АО, Россия) (148 км)
Погода в Окуневом Носу (Коми, Россия) (155 км)
Погода в Индиге (Ненецкий АО, Россия) (184 км)
Погода в Бугрино (Ненецкий АО, Россия) (200 км)
Погода в Мутном Материке (Коми, Россия) (209 км)
Погода в Хорей-Вере (Ненецкий АО, Россия) (214 км)
Погода в Варандее (Ненецкий АО, Россия) (245 км)

Пояснения к столбцам:

Ветер - указаны скорость ветра в м/с - средняя за 10 мин, порывы в срок и между сроками (в фигурных скобках) и направление, откуда дует ветер: С - северный, СВ - северо-восточный, В - восточный, ЮВ - юго-восточный, Ю - южный, ЮЗ - юго-западный, З - западный, СЗ - северо-западный.
Видимость - горизонтальная дальность видимости в метрах или километрах. При видимости от 1 до 10 км при отсутствии осадков обычно наблюдается дымка, при ухудшении видимости до 1 км и менее - туман. В сухую погоду видимость может ухудшаться дымом, пылью или мглою.
Явления - указаны атмосферные явления, наблюдавшиеся в срок или в последний час перед сроком; фигурными скобками обозначены явления, наблюдавшиеся между сроками (за 1-3 часа до срока); квадратными скобками обозначены град или гололедные отложения с указанием их диаметра в мм.
Облачность - указаны через наклонную черту общая и нижняя облачность в баллах и высота нижней границы облаков в метрах; квадратными скобками обозначены формы облаков: Ci - перистые, Cs - перисто-слоистые, Cc - перисто-кучевые, Ac - высококучевые, As - высокослоистые, Sc - слоисто-кучевые, Ns - слоисто-дождевые, Cu - кучевые, Cb - кучево-дождевые. Подробнее классификацию облаков см. в Атласе облаков (PDF).
T - Температура воздуха - температура, измеренная на высоте 2 м над землей.
Td - Температура точки росы - температура, при понижении до которой содержащийся в воздухе водяной пар достигнет насыщения.
f - Относительная влажность воздуха - влажноcть воздуха, измеренная на высоте 2 м над землей.
Te - Эффективная температура - температура, которую ощущает одетый по сезону человек в тени. Характеристика душности погоды. При расчете учитывается влияние влажности воздуха и скорости ветра на теплоощущения человека.
Tes - Эффективная температура на солнце - температура, которую ощущает человек, с поправкой на солнечный нагрев. Характеристика знойности погоды. Зависит от высоты солнца над горизонтом, облачности и скорости ветра. Ночью, в пасмурную погоду, а также при ветре 12 м/с и более поправка равна нулю.
P - Атмосферное давление - приведенное к уровню моря атмосферное давление.
Po - Атмосферное давление - измеренное на уровне метеостанции атмосферное давление.
Tmin - Минимальная температура - минимум температуры воздуха на высоте 2 м над землей.
Tmax - Максимальная температура - максимум температуры воздуха на высоте 2 м над землей.
R - Количество осадков - Количество выпавших осадков за период времени, мм. При наведении курсора мыши на число - период времени, за который выпало указанное количество осадков.
R24 - Количество осадков - Количество выпавших осадков за 24 часа, мм.
S - Снежный покров - Высота снежного покрова, см. При наведении курсора мыши на число - состояние снежного покрова и степень покрытия местности в баллах.